Surface/Precipitation History
12/06/2016 01:35  to  12/7/2016 01:35
Change End Date:
Date/Time
(MST)
Sf
Temp Chem Water Layer Surface Precipitation
Sfc Pvt Sub Frz Factor Pct Dpth DpthThk IcePct Cond Salin FI Type Intens Accum Rate
12/07/2016 01:30 Dry 18.9F - 31F - - - - - - 1 mhos 153 - None None 0.03 in 0.0 iph
12/07/2016 01:27 Dry 18.9F - 31F - - - - - - 1 mhos 155 - None None 0.03 in 0.0 iph
12/07/2016 01:17 Dry 18.9F - 31F - - - - - - 1 mhos 163 - None None 0.03 in 0.0 iph
12/07/2016 01:15 Dry 18.9F - 31F - - - - - - 1 mhos 165 - None None 0.03 in 0.0 iph
12/07/2016 01:07 Dry 18.7F - 31F - - - - - - 1 mhos 172 - None None 0.03 in 0.0 iph
12/07/2016 01:00 Dry 18.7F - 31F - - - - - - 1 mhos 177 - None None 0.03 in 0.0 iph
12/07/2016 00:57 Dry 18.7F - 31F - - - - - - 1 mhos 178 - None None 0.03 in 0.0 iph
12/07/2016 00:47 Dry 18.7F - 31F - - - - - - 1 mhos 187 - None None 0.03 in 0.0 iph
12/07/2016 00:45 Dry 18.7F - 31F - - - - - - 1 mhos 191 - None None 0.03 in 0.0 iph
12/07/2016 00:37 Dry 18.9F - 31F - - - - - - 2 mhos 199 - None None 0.03 in 0.0 iph
12/07/2016 00:30 Dry 18.9F - 31F - - - - - - 2 mhos 206 - None None 0.03 in 0.0 iph
12/07/2016 00:27 Dry 18.9F - 31F - - - - - - 2 mhos 209 - None None 0.03 in 0.0 iph
12/07/2016 00:17 Dry 19.0F - 31F - - - - - - 2 mhos 221 - None None 0.03 in 0.0 iph
12/07/2016 00:15 Dry 19.0F - 31F - - - - - - 2 mhos 223 - None None 0.03 in 0.0 iph
12/07/2016 00:07 Dry 19.0F - 31F - - - - - - 2 mhos 230 - None None 0.03 in 0.0 iph
Date/Time
(MST)
Sf
Temp Chem Water Layer Surface Precipitation
Sfc Pvt Sub Frz Factor Pct Dpth DpthThk IcePct Cond Salin FI Type Intens Accum Rate
12/07/2016 00:00 Dry 19.0F - 31F - - - - - - 2 mhos 236 - None None 0.03 in 0.0 iph
12/06/2016 23:57 Dry 19.0F - 31F - - - - - - 2 mhos 241 - None None 0.03 in 0.0 iph
12/06/2016 23:46 Ice Warning 19.0F - 31F 32F 10 1% - - 98% 2 mhos 247 - None None 0.03 in 0.0 iph
12/06/2016 23:45 Ice Warning 19.0F - 31F 32F 15 1% - - 98% 2 mhos 247 - None None 0.03 in 0.0 iph
12/06/2016 23:36 Ice Warning 19.0F - 31F 32F 15 1% - - 98% 2 mhos 254 - None None 0.03 in 0.0 iph
12/06/2016 23:30 Ice Warning 19.0F - 31F 32F 10 1% - - 98% 2 mhos 259 - None None 0.03 in 0.0 iph
12/06/2016 23:26 Ice Warning 19.0F - 31F 32F 15 1% - - 98% 2 mhos 261 - None None 0.03 in 0.0 iph
12/06/2016 23:16 Ice Warning 19.2F - 31F 32F 15 1% - - 98% 2 mhos 263 - None None 0.03 in 0.0 iph
12/06/2016 23:15 Ice Warning 19.2F - 31F 32F 15 1% - - 98% 2 mhos 263 - Snow Slight 0.03 in 0.0 iph
12/06/2016 23:06 Ice Warning 19.4F - 31F 32F 15 1% - - 98% 2 mhos 265 - Snow Slight 0.03 in 0.0 iph
12/06/2016 23:00 Ice Warning 19.4F - 31F 32F 15 1% - - 98% 2 mhos 265 - Snow Slight 0.03 in 0.0 iph
12/06/2016 22:56 Ice Warning 19.4F - 31F 32F 15 1% - - 98% 2 mhos 267 - None None 0.03 in 0.0 iph
12/06/2016 22:46 Ice Warning 19.2F - 31F 32F 20 1% - - 98% 2 mhos 271 - Snow Slight 0.03 in 0.0 iph
12/06/2016 22:45 Ice Warning 19.4F - 31F 32F 15 1% - - 98% 2 mhos 270 - None None 0.03 in 0.0 iph
12/06/2016 22:36 Ice Warning 19.4F - 31F 32F 15 1% - - 98% 2 mhos 273 - None None 0.03 in 0.0 iph
Date/Time
(MST)
Sf
Temp Chem Water Layer Surface Precipitation
Sfc Pvt Sub Frz Factor Pct Dpth DpthThk IcePct Cond Salin FI Type Intens Accum Rate
12/06/2016 22:30 Ice Warning 19.4F - 31F 32F 15 1% - - 98% 2 mhos 276 - None None 0.03 in 0.0 iph
12/06/2016 22:26 Ice Warning 19.4F - 31F 32F 15 1% - - 98% 2 mhos 279 - None None 0.03 in 0.0 iph
12/06/2016 22:16 Dry 19.4F - 31F - - - - - - 2 mhos 285 - None None 0.03 in 0.0 iph
12/06/2016 22:15 Dry 19.4F - 31F - - - - - - 2 mhos 284 - None None 0.03 in 0.0 iph
12/06/2016 22:06 Dry 19.4F - 31F - - - - - - 2 mhos 297 - None None 0.03 in 0.0 iph
12/06/2016 22:00 Ice Warning 19.4F - 31F 32F 20 1% - - 98% 2 mhos 304 - None None 0.03 in 0.0 iph
12/06/2016 21:56 Ice Warning 19.6F - 31F 32F 10 1% - - 98% 2 mhos 303 - None None 0.03 in 0.0 iph
12/06/2016 21:46 Ice Warning 19.6F - 31F 32F 15 1% - - 98% 2 mhos 310 - None None 0.03 in 0.0 iph
12/06/2016 21:45 Ice Warning 19.4F - 31F 32F 15 1% - - 98% 2 mhos 311 - None None 0.03 in 0.0 iph
12/06/2016 21:36 Ice Warning 19.6F - 31F 32F 10 1% - - 98% 2 mhos 310 - Snow Slight 0.03 in 0.0 iph
12/06/2016 21:30 Ice Warning 19.6F - 31F 32F 15 1% - - 98% 2 mhos 314 - Snow Slight 0.03 in 0.0 iph
12/06/2016 21:26 Ice Warning 19.8F - 31F 32F 15 1% - - 98% 2 mhos 313 - Snow Slight 0.03 in 0.0 iph
12/06/2016 21:16 Ice Warning 19.6F - 31F 32F 10 1% - - 98% 2 mhos 317 - Snow Slight 0.03 in 0.0 iph
12/06/2016 21:15 Ice Warning 19.6F - 31F 32F 10 1% - - 98% 2 mhos 317 - Snow Slight 0.03 in 0.0 iph
12/06/2016 21:06 Ice Warning 19.8F - 31F 32F 15 1% - - 97% 2 mhos 317 - Snow Slight 0.03 in 0.0 iph
Date/Time
(MST)
Sf
Temp Chem Water Layer Surface Precipitation
Sfc Pvt Sub Frz Factor Pct Dpth DpthThk IcePct Cond Salin FI Type Intens Accum Rate
12/06/2016 21:00 Ice Warning 19.9F - 31F 32F 20 1% - - 97% 3 mhos 320 - Snow Slight 0.03 in 0.0 iph
12/06/2016 20:56 Ice Warning 19.8F - 31F 32F 15 1% - - 97% 3 mhos 324 - Snow Slight 0.03 in 0.0 iph
12/06/2016 20:46 Ice Warning 19.8F - 31F 32F 15 1% - - 97% 3 mhos 328 - Snow Slight 0.03 in 0.0 iph
12/06/2016 20:45 Ice Warning 19.9F - 31F 32F 15 1% - - 97% 3 mhos 328 - None None 0.03 in 0.0 iph
12/06/2016 20:36 Ice Warning 19.9F - 31F 32F 20 1% - - 97% 3 mhos 336 - Snow Slight 0.03 in 0.0 iph
12/06/2016 20:30 Ice Warning 19.9F - 31F 32F 25 1% - - 97% 3 mhos 336 - Snow Slight 0.02 in 0.0 iph
12/06/2016 20:25 Ice Warning 19.9F - 31F 32F 40 1% - - 97% 3 mhos 340 - Other Other 0.02 in 0.0 iph
12/06/2016 20:15 Ice Warning 19.9F - 31F 32F 95 1% - - 97% 3 mhos 344 - Snow Slight 0.02 in 0.0 iph
12/06/2016 20:15 Ice Warning 19.9F - 31F 32F 95 1% - - 97% 3 mhos 344 - Snow Slight 0.02 in 0.0 iph
12/06/2016 20:05 Ice Warning 20.1F - 31F 32F 25 1% - - 97% 3 mhos 344 - Snow Slight 0.02 in 0.0 iph
12/06/2016 20:00 Ice Warning 20.1F - 31F 32F 55 1% - - 97% 3 mhos 348 - Snow Slight 0.02 in 0.0 iph
12/06/2016 19:55 Ice Warning 20.1F - 31F 32F 85 1% - - 97% 3 mhos 347 - Snow Slight 0.02 in 0.0 iph
12/06/2016 19:45 Ice Warning 20.3F - 31F 32F 20 1% - - 97% 3 mhos 342 - None None 0.02 in 0.0 iph
12/06/2016 19:45 Ice Warning 20.1F - 31F 32F 25 1% - - 97% 3 mhos 343 - None None 0.02 in 0.0 iph
12/06/2016 19:35 Ice Warning 20.1F - 31F 32F 70 1% - - 97% 3 mhos 347 - Snow Slight 0.02 in 0.0 iph
Date/Time
(MST)
Sf
Temp Chem Water Layer Surface Precipitation
Sfc Pvt Sub Frz Factor Pct Dpth DpthThk IcePct Cond Salin FI Type Intens Accum Rate
12/06/2016 19:30 Ice Warning 20.3F - 31F 32F 75 1% - - 97% 3 mhos 346 - Snow Slight 0.02 in 0.0 iph
12/06/2016 19:25 Ice Warning 20.5F - 31F 32F 95 1% - - 97% 3 mhos 345 - Snow Slight 0.02 in 0.0 iph
12/06/2016 19:15 Ice Warning 20.3F - 31F 32F 95 1% - - 97% 3 mhos 336 - Snow Slight 0.02 in 0.0 iph
12/06/2016 19:15 Ice Warning 20.1F - 31F 32F 95 1% - - 97% 3 mhos 338 - Snow Slight 0.02 in 0.0 iph
12/06/2016 19:05 Ice Warning 20.3F - 31F 32F 20 1% - - 97% 3 mhos 338 - Snow Slight 0.02 in 0.0 iph
12/06/2016 19:00 Ice Warning 20.5F - 31F 32F 25 1% - - 97% 3 mhos 337 - Snow Slight 0.02 in 0.0 iph
12/06/2016 18:55 Ice Warning 20.7F - 31F 32F 25 1% - - 97% 3 mhos 336 - Snow Slight 0.02 in 0.0 iph
12/06/2016 18:45 Ice Warning 20.8F - 31F 32F 25 1% - - 97% 3 mhos 340 - Snow Slight 0.02 in 0.0 iph
12/06/2016 18:45 Ice Warning 20.8F - 31F 32F 25 1% - - 97% 3 mhos 340 - Snow Slight 0.02 in 0.0 iph
12/06/2016 18:35 Ice Warning 20.8F - 31F 32F 75 1% - - 97% 3 mhos 339 - Snow Slight 0.02 in 0.0 iph
12/06/2016 18:30 Ice Warning 21.0F - 31F 32F 50 1% - - 97% 3 mhos 334 - Snow Slight 0.02 in 0.0 iph
12/06/2016 18:25 Ice Warning 20.8F - 31F 32F 25 1% - - 97% 3 mhos 327 - Snow Slight 0.02 in 0.0 iph
12/06/2016 18:15 Ice Warning 21.0F - 31F 32F 40 1% - - 97% 3 mhos 326 - Snow Slight 0.02 in 0.0 iph
12/06/2016 18:15 Ice Warning 21.0F - 31F 32F 40 1% - - 97% 3 mhos 322 - Snow Slight 0.02 in 0.0 iph
12/06/2016 18:05 Ice Warning 21.0F - 31F 32F 85 1% - - 97% 2 mhos 306 - None None 0.02 in 0.0 iph
Date/Time
(MST)
Sf
Temp Chem Water Layer Surface Precipitation
Sfc Pvt Sub Frz Factor Pct Dpth DpthThk IcePct Cond Salin FI Type Intens Accum Rate
12/06/2016 18:00 Ice Warning 21.0F - 31F 32F 95 1% - - 97% 2 mhos 303 - Snow Slight 0.02 in 0.0 iph
12/06/2016 17:55 Ice Warning 21.0F - 31F 32F 95 1% - - 97% 2 mhos 296 - Snow Slight 0.02 in 0.0 iph
12/06/2016 17:45 Ice Warning 21.0F - 31F 32F 90 1% - - 97% 2 mhos 290 - Snow Slight 0.02 in 0.0 iph
12/06/2016 17:45 Ice Warning 21.0F - 31F 32F 90 1% - - 97% 2 mhos 289 - Snow Slight 0.02 in 0.0 iph
12/06/2016 17:34 Dry 21.2F - 31F - - - - - - 2 mhos 286 - Snow Slight 0.03 in 0.0 iph
12/06/2016 17:30 Ice Warning 21.4F - 31F 32F 20 1% - - 97% 2 mhos 288 - Snow Slight 0.03 in 0.0 iph
12/06/2016 17:24 Ice Warning 21.4F - 31F 32F 10 1% - - 97% 2 mhos 288 - Snow Slight 0.03 in 0.0 iph
12/06/2016 17:15 Ice Warning 21.4F - 31F 32F 20 1% - - 97% 2 mhos 295 - None None 0.02 in 0.0 iph
12/06/2016 17:14 Ice Warning 21.4F - 31F 32F 20 1% - - 97% 2 mhos 295 - None None 0.02 in 0.0 iph
12/06/2016 17:04 Ice Warning 21.4F - 31F 32F 40 1% - - 97% 2 mhos 305 - Snow Slight 0.02 in 0.0 iph
12/06/2016 17:00 Ice Warning 21.6F - 31F 32F 80 1% - - 97% 2 mhos 304 - None None 0.02 in 0.0 iph
12/06/2016 16:54 Ice Warning 21.6F - 31F 32F 20 1% - - 97% 2 mhos 301 - Snow Slight 0.02 in 0.0 iph
12/06/2016 16:45 Ice Warning 21.9F - 31F 32F 15 1% - - 97% 3 mhos 314 - None None 0.02 in 0.0 iph
12/06/2016 16:44 Ice Warning 22.1F - 31F 32F 15 1% - - 97% 3 mhos 313 - Snow Slight 0.02 in 0.0 iph
12/06/2016 16:34 Ice Warning 22.3F - 31F 32F 25 1% - - 97% 3 mhos 324 - Snow Slight 0.02 in 0.0 iph
Date/Time
(MST)
Sf
Temp Chem Water Layer Surface Precipitation
Sfc Pvt Sub Frz Factor Pct Dpth DpthThk IcePct Cond Salin FI Type Intens Accum Rate
12/06/2016 16:30 Ice Warning 22.3F - 31F 32F 45 1% - - 97% 3 mhos 324 - None None 0.02 in 0.0 iph
12/06/2016 16:24 Ice Warning 22.5F - 31F 32F 70 1% - - 97% 3 mhos 331 - None None 0.02 in 0.0 iph
12/06/2016 16:15 Ice Warning 23.2F - 31F 32F 70 1% - - 96% 3 mhos 328 - Snow Slight 0.02 in 0.0 iph
12/06/2016 16:14 Ice Warning 23.0F - 31F 32F 80 1% - - 96% 3 mhos 329 - None None 0.02 in 0.0 iph
12/06/2016 16:04 Ice Warning 23.0F - 31F 32F 25 1% - - 96% 3 mhos 333 - Snow Slight 0.02 in 0.0 iph
12/06/2016 16:00 Ice Warning 23.0F - 31F 32F 20 1% - - 96% 3 mhos 333 - Snow Slight 0.02 in 0.0 iph
12/06/2016 15:54 Ice Warning 23.4F - 31F 32F 25 1% - - 96% 3 mhos 336 - Snow Slight 0.02 in 0.0 iph
12/06/2016 15:45 Ice Warning 23.7F - 31F 32F 55 1% - - 96% 3 mhos 338 - None None 0.02 in 0.0 iph
12/06/2016 15:44 Ice Warning 23.5F - 31F 32F 60 1% - - 96% 3 mhos 339 - None None 0.02 in 0.0 iph
12/06/2016 15:34 Ice Warning 23.7F - 31F 32F 25 1% - - 96% 3 mhos 353 - None None 0.02 in 0.0 iph
12/06/2016 15:30 Ice Warning 23.9F - 31F 32F 95 1% - - 96% 3 mhos 351 - None None 0.02 in 0.0 iph
12/06/2016 15:24 Ice Warning 24.1F - 31F 32F 80 1% - - 96% 3 mhos 356 - None None 0.02 in 0.0 iph
12/06/2016 15:15 Ice Warning 24.4F - 31F 32F 20 1% - - 95% 3 mhos 354 - None None 0.02 in 0.0 iph
12/06/2016 15:14 Ice Warning 24.4F - 31F 32F 20 1% - - 95% 3 mhos 354 - None None 0.02 in 0.0 iph
12/06/2016 15:04 Ice Warning 24.8F - 31F 32F 35 1% - - 95% 3 mhos 360 - Snow Slight 0.02 in 0.0 iph
Date/Time
(MST)
Sf
Temp Chem Water Layer Surface Precipitation
Sfc Pvt Sub Frz Factor Pct Dpth DpthThk IcePct Cond Salin FI Type Intens Accum Rate
12/06/2016 15:00 Ice Warning 24.8F - 31F 32F 50 1% - - 95% 3 mhos 362 - None None 0.02 in 0.0 iph
12/06/2016 14:54 Ice Warning 24.6F - 31F 32F 20 1% - - 95% 3 mhos 363 - Snow Slight 0.02 in 0.0 iph
12/06/2016 14:45 Dry 25.0F - 31F - - - - - - 3 mhos 373 - Snow Slight 0.02 in 0.0 iph
12/06/2016 14:43 Dry 25.2F - 31F - - - - - - 3 mhos 373 - None None 0.02 in 0.0 iph
12/06/2016 14:33 Ice Warning 25.3F - 31F 32F 20 1% - - 95% 3 mhos 372 - Snow Slight 0.02 in 0.0 iph
12/06/2016 14:30 Ice Warning 25.3F - 31F 32F 20 1% - - 94% 3 mhos 378 - Snow Slight 0.02 in 0.0 iph
12/06/2016 14:23 Ice Warning 25.5F - 31F 32F 20 1% - - 94% 3 mhos 382 - Snow Slight 0.02 in 0.0 iph
12/06/2016 14:15 Ice Warning 25.9F - 31F 32F 30 1% - - 94% 3 mhos 378 - Snow Slight 0.02 in 0.0 iph
12/06/2016 14:13 Ice Warning 25.7F - 31F 32F 40 1% - - 94% 3 mhos 379 - Snow Slight 0.02 in 0.0 iph
12/06/2016 14:03 Ice Warning 25.7F - 31F 32F 20 1% - - 94% 3 mhos 379 - Snow Slight 0.02 in 0.0 iph
12/06/2016 14:00 Ice Warning 25.9F - 31F 32F 25 1% - - 94% 3 mhos 379 - Snow Slight 0.02 in 0.0 iph
12/06/2016 13:53 Ice Warning 26.2F - 31F 32F 45 1% - - 94% 3 mhos 379 - Snow Slight 0.02 in 0.0 iph
12/06/2016 13:45 Ice Warning 26.1F - 31F 32F 95 1% - - 94% 3 mhos 389 - Snow Slight 0.02 in 0.0 iph
12/06/2016 13:43 Ice Warning 26.1F - 31F 32F 95 1% - - 94% 3 mhos 388 - Snow Slight 0.02 in 0.0 iph
12/06/2016 13:33 Ice Warning 26.4F - 31F 32F 90 1% - - 93% 3 mhos 388 - Snow Slight 0.02 in 0.0 iph
Date/Time
(MST)
Sf
Temp Chem Water Layer Surface Precipitation
Sfc Pvt Sub Frz Factor Pct Dpth DpthThk IcePct Cond Salin FI Type Intens Accum Rate
12/06/2016 13:30 Ice Warning 26.4F - 31F 32F 95 1% - - 93% 3 mhos 389 - Snow Slight 0.02 in 0.0 iph
12/06/2016 13:23 Ice Warning 26.6F - 31F 32F 50 1% - - 93% 3 mhos 388 - Snow Slight 0.02 in 0.0 iph
12/06/2016 13:15 Ice Warning 26.4F - 31F 32F 75 2% - - 93% 3 mhos 393 - Snow Slight 0.02 in 0.0 iph
12/06/2016 13:13 Ice Warning 26.8F - 31F 32F 95 2% - - 93% 3 mhos 394 - Snow Slight 0.02 in 0.0 iph
12/06/2016 13:03 Ice Warning 26.8F - 31F 32F 95 2% - - 92% 3 mhos 396 - Snow Slight 0.02 in 0.0 iph
12/06/2016 13:00 Ice Warning 26.8F - 31F 32F 95 2% - - 93% 3 mhos 393 - Snow Slight 0.02 in 0.0 iph
12/06/2016 12:53 Ice Warning 26.6F - 31F 32F 95 1% - - 93% 3 mhos 390 - Snow Slight 0.02 in 0.0 iph
12/06/2016 12:45 Ice Warning 26.4F - 31F 32F 95 2% - - 93% 3 mhos 396 - Snow Slight 0.02 in 0.0 iph
12/06/2016 12:43 Ice Warning 26.2F - 31F 32F 55 2% - - 93% 3 mhos 398 - Snow Slight 0.02 in 0.0 iph
12/06/2016 12:33 Ice Warning 24.4F - 31F 32F 25 2% - - 95% 3 mhos 411 - Snow Slight 0.02 in 0.0 iph
12/06/2016 12:30 Ice Warning 24.6F - 31F 32F 40 2% - - 95% 3 mhos 413 - Snow Slight 0.02 in 0.0 iph
12/06/2016 12:23 Ice Warning 25.0F - 31F 31F 50 2% - - 94% 4 mhos 425 - Snow Slight 0.02 in 0.0 iph
12/06/2016 12:15 Ice Warning 25.0F - 31F 31F 85 2% - - 94% 4 mhos 433 - Snow Slight 0.01 in 0.0 iph
12/06/2016 12:13 Ice Warning 24.4F - 31F 31F 90 2% - - 94% 4 mhos 435 - Snow Slight 0.01 in 0.0 iph
12/06/2016 12:03 Ice Warning 23.5F - 31F 31F 95 2% - - 95% 4 mhos 452 - None None 0.01 in 0.0 iph
Date/Time
(MST)
Sf
Temp Chem Water Layer Surface Precipitation
Sfc Pvt Sub Frz Factor Pct Dpth DpthThk IcePct Cond Salin FI Type Intens Accum Rate
12/06/2016 12:00 Ice Warning 23.5F - 31F 31F 95 2% - - 95% 4 mhos 456 - None None 0.01 in 0.0 iph
12/06/2016 11:53 Ice Warning 23.5F - 31F 31F 95 2% - - 95% 4 mhos 468 - Snow Slight 0.01 in 0.0 iph
12/06/2016 11:45 Ice Warning 23.9F - 31F 31F 50 2% - - 94% 4 mhos 497 - None None 0.01 in 0.0 iph
12/06/2016 11:42 Ice Warning 24.3F - 31F 31F 55 2% - - 94% 4 mhos 500 - None None 0.01 in 0.0 iph
12/06/2016 11:32 Ice Warning 24.1F - 31F 31F 95 2% - - 94% 4 mhos 532 - None None 0.01 in 0.0 iph
12/06/2016 11:30 Ice Warning 23.7F - 31F 31F 95 2% - - 94% 5 mhos 550 - None None 0.01 in 0.0 iph
12/06/2016 11:22 Ice Warning 23.2F - 31F 31F 95 2% - - 94% 5 mhos 561 - None None 0.01 in 0.0 iph
12/06/2016 11:15 Ice Warning 22.5F - 31F 31F 95 2% - - 94% 5 mhos 567 - None None 0.01 in 0.0 iph
12/06/2016 11:12 Ice Warning 22.1F - 31F 31F 95 2% - - 94% 4 mhos 551 - None None 0.01 in 0.0 iph
12/06/2016 11:02 Ice Warning 21.0F - 31F 31F 95 2% - - 95% 5 mhos 579 - None None 0.01 in 0.0 iph
12/06/2016 11:00 Ice Warning 20.7F - 31F 31F 95 2% - - 95% 5 mhos 585 - None None 0.01 in 0.0 iph
12/06/2016 10:52 Ice Warning 20.1F - 31F 31F 95 2% - - 95% 5 mhos 602 - None None 0.01 in 0.0 iph
12/06/2016 10:45 Ice Warning 19.9F - 31F 31F 95 2% - - 95% 5 mhos 627 - None None 0.01 in 0.0 iph
12/06/2016 10:42 Ice Warning 19.8F - 31F 31F 95 2% - - 95% 5 mhos 628 - None None 0.01 in 0.0 iph
12/06/2016 10:32 Ice Warning 19.6F - 31F 31F 95 2% - - 95% 5 mhos 646 - None None 0.01 in 0.0 iph
Date/Time
(MST)
Sf
Temp Chem Water Layer Surface Precipitation
Sfc Pvt Sub Frz Factor Pct Dpth DpthThk IcePct Cond Salin FI Type Intens Accum Rate
12/06/2016 10:30 Ice Warning 19.0F - 31F 31F 95 3% - - 95% 5 mhos 678 - None None 0.01 in 0.0 iph
12/06/2016 10:22 Ice Warning 19.2F - 31F 31F 95 3% - - 94% 6 mhos 753 - None None 0.01 in 0.0 iph
12/06/2016 10:15 Ice Warning 19.0F - 31F 31F 95 3% - - 94% 6 mhos 835 - None None 0.01 in 0.0 iph
12/06/2016 10:12 Ice Warning 18.9F - 31F 31F 95 3% - - 94% 7 mhos 869 - None None 0.01 in 0.0 iph
12/06/2016 10:02 Ice Warning 18.3F - 31F 31F 95 4% - - 93% 7 mhos 918 - None None 0.01 in 0.0 iph
12/06/2016 10:00 Ice Warning 18.1F - 31F 31F 95 4% - - 93% 7 mhos 943 - None None 0.01 in 0.0 iph
12/06/2016 09:52 Ice Warning 17.4F - 31F 31F 95 4% - - 93% 8 mhos 1022 - None None 0.01 in 0.0 iph
12/06/2016 09:45 Ice Warning 17.1F - 31F 31F 95 4% - - 93% 8 mhos 1016 - None None 0.01 in 0.0 iph
12/06/2016 09:42 Ice Warning 16.9F - 31F 31F 95 4% - - 93% 8 mhos 1025 - None None 0.01 in 0.0 iph
12/06/2016 09:32 Ice Warning 16.2F - 31F 31F 95 4% - - 93% 8 mhos 1158 - None None 0.01 in 0.0 iph
12/06/2016 09:30 Ice Warning 16.2F - 31F 31F 95 4% - - 93% 9 mhos 1167 - None None 0.01 in 0.0 iph
12/06/2016 09:22 Ice Warning 16.0F - 31F 31F 95 4% - - 93% 8 mhos 1162 - None None 0.01 in 0.0 iph
12/06/2016 09:15 Ice Warning 15.8F - 31F 31F 95 4% - - 93% 8 mhos 1147 - None None 0.01 in 0.0 iph
12/06/2016 09:12 Ice Warning 15.4F - 31F 31F 95 4% - - 94% 8 mhos 1095 - None None 0.01 in 0.0 iph
12/06/2016 09:02 Ice Warning 14.9F - 31F 31F 95 4% - - 95% 7 mhos 916 - None None 0.01 in 0.0 iph
Date/Time
(MST)
Sf
Temp Chem Water Layer Surface Precipitation
Sfc Pvt Sub Frz Factor Pct Dpth DpthThk IcePct Cond Salin FI Type Intens Accum Rate
12/06/2016 09:00 Ice Warning 14.9F - 31F 31F 95 4% - - 95% 7 mhos 925 - None None 0.01 in 0.0 iph
12/06/2016 08:51 Ice Warning 14.9F - 31F 31F 95 4% - - 94% 7 mhos 996 - None None 0.01 in 0.0 iph
12/06/2016 08:45 Ice Warning 14.9F - 32F 31F 95 4% - - 95% 7 mhos 973 - None None 0.01 in 0.0 iph
12/06/2016 08:41 Ice Warning 14.9F - 32F 31F 95 4% - - 94% 7 mhos 1000 - None None 0.01 in 0.0 iph
12/06/2016 08:31 Ice Warning 14.9F - 32F 31F 95 3% - - 96% 6 mhos 770 - None None 0.01 in 0.0 iph
12/06/2016 08:30 Ice Warning 14.7F - 31F 31F 95 3% - - 96% 6 mhos 768 - None None 0.01 in 0.0 iph
12/06/2016 08:21 Ice Warning 14.9F - 32F 31F 95 2% - - 96% 5 mhos 649 - None None 0.01 in 0.0 iph
12/06/2016 08:15 Ice Warning 14.9F - 32F 31F 95 2% - - 96% 5 mhos 627 - None None 0.01 in 0.0 iph
12/06/2016 08:11 Ice Warning 14.9F - 32F 31F 95 2% - - 96% 5 mhos 641 - None None 0.01 in 0.0 iph
12/06/2016 08:01 Ice Warning 15.1F - 32F 31F 95 2% - - 97% 4 mhos 595 - None None 0.01 in 0.0 iph
12/06/2016 08:00 Ice Warning 14.9F - 32F 31F 95 2% - - 97% 4 mhos 617 - None None 0.01 in 0.0 iph
12/06/2016 07:51 Ice Warning 15.1F - 32F 31F 95 2% - - 97% 4 mhos 613 - None None 0.01 in 0.0 iph
12/06/2016 07:45 Ice Warning 15.3F - 32F 31F 95 2% - - 97% 4 mhos 607 - None None 0.01 in 0.0 iph
12/06/2016 07:41 Ice Warning 15.4F - 32F 31F 95 2% - - 97% 4 mhos 604 - None None 0.01 in 0.0 iph
12/06/2016 07:31 Ice Warning 15.6F - 32F 31F 95 2% - - 97% 4 mhos 595 - None None 0.01 in 0.0 iph
Date/Time
(MST)
Sf
Temp Chem Water Layer Surface Precipitation
Sfc Pvt Sub Frz Factor Pct Dpth DpthThk IcePct Cond Salin FI Type Intens Accum Rate
12/06/2016 07:30 Ice Warning 15.6F - 32F 31F 95 2% - - 97% 4 mhos 594 - None None 0.01 in 0.0 iph
12/06/2016 07:21 Ice Warning 16.0F - 32F 31F 95 2% - - 97% 4 mhos 585 - None None 0.01 in 0.0 iph
12/06/2016 07:15 Ice Warning 16.0F - 32F 31F 95 2% - - 97% 4 mhos 573 - None None 0.01 in 0.0 iph
12/06/2016 07:11 Ice Warning 16.0F - 32F 31F 95 2% - - 97% 4 mhos 566 - None None 0.01 in 0.0 iph
12/06/2016 07:01 Ice Warning 16.2F - 32F 31F 95 2% - - 97% 4 mhos 540 - None None 0.01 in 0.0 iph
12/06/2016 07:00 Ice Warning 16.2F - 32F 31F 95 2% - - 97% 4 mhos 538 - None None 0.01 in 0.0 iph
12/06/2016 06:51 Ice Warning 16.3F - 32F 31F 95 2% - - 97% 4 mhos 526 - None None 0.01 in 0.0 iph
12/06/2016 06:45 Ice Warning 16.5F - 32F 31F 95 2% - - 97% 4 mhos 516 - None None 0.01 in 0.0 iph
12/06/2016 06:41 Ice Warning 16.5F - 32F 31F 95 2% - - 97% 4 mhos 512 - None None 0.01 in 0.0 iph
12/06/2016 06:31 Ice Warning 16.7F - 32F 31F 95 2% - - 97% 4 mhos 502 - None None 0.01 in 0.0 iph
12/06/2016 06:30 Ice Warning 16.7F - 32F 31F 95 2% - - 97% 4 mhos 501 - None None 0.01 in 0.0 iph
12/06/2016 06:21 Ice Warning 16.7F - 32F 31F 95 2% - - 97% 4 mhos 494 - None None 0.01 in 0.0 iph
12/06/2016 06:15 Ice Warning 16.7F - 32F 31F 95 2% - - 97% 4 mhos 493 - None None 0.01 in 0.0 iph
12/06/2016 06:11 Ice Warning 16.9F - 32F 31F 95 2% - - 97% 4 mhos 493 - None None 0.01 in 0.0 iph
12/06/2016 06:01 Ice Warning 16.9F - 32F 31F 95 2% - - 97% 4 mhos 501 - Snow Slight 0.01 in 0.0 iph
Date/Time
(MST)
Sf
Temp Chem Water Layer Surface Precipitation
Sfc Pvt Sub Frz Factor Pct Dpth DpthThk IcePct Cond Salin FI Type Intens Accum Rate
12/06/2016 06:00 Ice Warning 16.9F - 32F 31F 95 2% - - 97% 4 mhos 504 - Snow Slight 0.01 in 0.0 iph
12/06/2016 05:50 Ice Warning 17.1F - 32F 31F 95 2% - - 96% 4 mhos 544 - Snow Slight 0.01 in 0.0 iph
12/06/2016 05:45 Ice Warning 17.2F - 32F 31F 95 2% - - 96% 4 mhos 584 - Snow Slight 0.01 in 0.0 iph
12/06/2016 05:40 Ice Warning 17.2F - 32F 31F 95 2% - - 96% 5 mhos 629 - Snow Slight 0.01 in 0.0 iph
12/06/2016 05:30 Ice Warning 17.2F - 32F 31F 95 3% - - 95% 5 mhos 722 - Snow Slight 0.01 in 0.0 iph
12/06/2016 05:30 Ice Warning 17.2F - 32F 31F 95 3% - - 95% 5 mhos 729 - Snow Slight 0.01 in 0.0 iph
12/06/2016 05:20 Ice Warning 17.4F - 32F 31F 95 3% - - 95% 6 mhos 754 - Snow Slight 0.01 in 0.0 iph
12/06/2016 05:15 Ice Warning 17.6F - 32F 31F 95 3% - - 95% 6 mhos 767 - Snow Slight 0.01 in 0.0 iph
12/06/2016 05:10 Ice Warning 17.6F - 32F 31F 95 3% - - 95% 6 mhos 773 - None None 0.01 in 0.0 iph
12/06/2016 05:00 Ice Warning 17.8F - 32F 31F 95 3% - - 95% 6 mhos 792 - Snow Slight 0.01 in 0.0 iph
12/06/2016 05:00 Ice Warning 18.0F - 32F 31F 95 3% - - 95% 6 mhos 794 - Snow Slight 0.01 in 0.0 iph
12/06/2016 04:50 Ice Warning 18.0F - 32F 31F 95 3% - - 94% 6 mhos 817 - None None 0.01 in 0.0 iph
12/06/2016 04:45 Ice Warning 18.0F - 32F 31F 95 3% - - 94% 6 mhos 837 - None None 0.01 in 0.0 iph
12/06/2016 04:40 Ice Warning 18.3F - 32F 31F 95 3% - - 94% 6 mhos 854 - None None 0.01 in 0.0 iph
12/06/2016 04:30 Ice Warning 18.0F - 32F 31F 95 4% - - 94% 7 mhos 923 - None None 0.01 in 0.0 iph
Date/Time
(MST)
Sf
Temp Chem Water Layer Surface Precipitation
Sfc Pvt Sub Frz Factor Pct Dpth DpthThk IcePct Cond Salin FI Type Intens Accum Rate
12/06/2016 04:30 Ice Warning 18.0F - 32F 31F 95 4% - - 94% 7 mhos 923 - None None 0.01 in 0.0 iph
12/06/2016 04:20 Ice Warning 18.0F - 32F 31F 95 4% - - 93% 7 mhos 992 - None None 0.01 in 0.0 iph
12/06/2016 04:15 Ice Warning 18.0F - 32F 31F 95 4% - - 93% 8 mhos 1011 - None None 0.01 in 0.0 iph
12/06/2016 04:10 Ice Warning 18.1F - 32F 31F 95 4% - - 93% 8 mhos 1055 - None None 0.01 in 0.0 iph
12/06/2016 04:00 Ice Warning 18.0F - 32F 31F 95 4% - - 92% 8 mhos 1111 - None None 0.01 in 0.0 iph
12/06/2016 04:00 Ice Warning 18.0F - 32F 31F 95 4% - - 92% 8 mhos 1111 - None None 0.01 in 0.0 iph
12/06/2016 03:50 Ice Warning 18.1F - 32F 31F 95 4% - - 92% 8 mhos 1116 - None None 0.01 in 0.0 iph
12/06/2016 03:45 Ice Warning 18.3F - 32F 31F 95 4% - - 92% 9 mhos 1132 - None None 0.01 in 0.0 iph
12/06/2016 03:40 Ice Warning 18.1F - 32F 31F 95 5% - - 91% 9 mhos 1218 - None None 0.01 in 0.0 iph
12/06/2016 03:30 Ice Warning 18.0F - 32F 31F 95 5% - - 91% 10 mhos 1327 - None None 0.01 in 0.0 iph
12/06/2016 03:30 Ice Warning 18.0F - 32F 31F 95 5% - - 91% 10 mhos 1327 - None None 0.01 in 0.0 iph
12/06/2016 03:20 Ice Warning 18.0F - 32F 30F 95 6% - - 90% 11 mhos 1454 - None None 0.01 in 0.0 iph
12/06/2016 03:15 Ice Warning 17.6F - 32F 30F 95 6% - - 89% 12 mhos 1592 - None None 0.01 in 0.0 iph
12/06/2016 03:10 Ice Warning 17.6F - 32F 30F 95 6% - - 89% 12 mhos 1620 - None None 0.01 in 0.0 iph
12/06/2016 03:00 Ice Warning 17.2F - 32F 30F 95 7% - - 89% 13 mhos 1742 - None None 0.01 in 0.0 iph
Date/Time
(MST)
Sf
Temp Chem Water Layer Surface Precipitation
Sfc Pvt Sub Frz Factor Pct Dpth DpthThk IcePct Cond Salin FI Type Intens Accum Rate
12/06/2016 03:00 Ice Warning 17.2F - 32F 30F 95 7% - - 89% 13 mhos 1742 - None None 0.01 in 0.0 iph
12/06/2016 02:50 Ice Warning 17.2F - 32F 30F 95 7% - - 88% 13 mhos 1808 - None None 0.01 in 0.0 iph
12/06/2016 02:45 Ice Warning 17.1F - 32F 30F 95 7% - - 88% 14 mhos 1878 - None None 0.01 in 0.0 iph
12/06/2016 02:39 Ice Warning 17.1F - 32F 30F 95 7% - - 88% 14 mhos 1911 - None None 0.01 in 0.0 iph
12/06/2016 02:30 Ice Warning 17.2F - 32F 30F 95 8% - - 87% 15 mhos 1998 - None None 0.01 in 0.0 iph
12/06/2016 02:29 Ice Warning 17.2F - 32F 30F 95 8% - - 87% 15 mhos 1998 - None None 0.01 in 0.0 iph
12/06/2016 02:19 Ice Warning 17.4F - 32F 30F 95 8% - - 86% 15 mhos 2042 - None None 0.01 in 0.0 iph
12/06/2016 02:15 Ice Warning 17.2F - 32F 30F 95 8% - - 86% 15 mhos 2115 - None None 0.01 in 0.0 iph
12/06/2016 02:09 Ice Warning 17.6F - 32F 30F 95 8% - - 86% 16 mhos 2143 - None None 0.01 in 0.0 iph
12/06/2016 02:01 Ice Warning 17.6F - 32F 30F 95 9% - - 85% 16 mhos 2219 - None None 0.01 in 0.0 iph
12/06/2016 01:59 Ice Warning 17.6F - 32F 29F 95 9% - - 85% 16 mhos 2230 - None None 0.01 in 0.0 iph
12/06/2016 01:49 Chemically Wet 17.8F - 32F 29F 95 9% - - 84% 17 mhos 2331 - None None 0.01 in 0.0 iph
12/06/2016 01:45 Chemically Wet 18.1F - 32F 29F 95 9% - - 84% 17 mhos 2327 - None None 0.01 in 0.0 iph
12/06/2016 01:39 Chemically Wet 18.0F - 32F 29F 95 9% - - 84% 17 mhos 2360 - None None 0.01 in 0.0 iph
Change End Date:

Copyright © 1998-2015 Vaisala, Inc.
All Rights Reserved
Send comments about the data to:
SCAN Web ® is a registered trademark of Vaisala, Inc.
SCAN Web Version 6.0